Time,TemperatureF,DewpointF,PressureIn,WindDirection,WindDirectionDegrees,WindSpeedMPH,WindSpeedGustMPH,Humidity,HourlyPrecipIn,Conditions,Clouds,dailyrainin,SoftwareType,DateUTC
2013-01-07 00:00:00,33.0,25.9,30.24,West,263,10.0,10.0,75,0.00,RA,,0.00,WeatherDisplay:10.37,2013-01-07 05:00:00,
2013-01-07 00:01:00,33.0,25.9,30.24,West,263,10.0,10.0,75,0.00,RA,,0.00,WeatherDisplay:10.37,2013-01-07 05:01:00,
2013-01-07 00:02:00,33.0,25.9,30.24,West,263,10.4,10.4,75,0.00,RA,,0.00,WeatherDisplay:10.37,2013-01-07 05:02:00,
2013-01-07 00:07:00,32.9,25.8,30.24,West,271,9.0,9.0,75,0.00,RA,,0.00,WeatherDisplay:10.37,2013-01-07 05:07:00,
2013-01-07 00:12:00,32.9,25.8,30.24,NW,315,4.0,4.0,75,0.00,CLR,,0.00,WeatherDisplay:10.37,2013-01-07 05:12:00,
2013-01-07 00:17:00,32.8,25.7,30.25,WNW,284,7.0,7.0,75,0.00,CLR,,0.00,WeatherDisplay:10.37,2013-01-07 05:17:00,
2013-01-07 00:22:00,32.6,25.6,30.25,NW,305,5.0,5.0,75,0.00,CLR,,0.00,WeatherDisplay:10.37,2013-01-07 05:22:00,
2013-01-07 00:27:00,32.6,25.2,30.25,WNW,302,7.0,7.0,74,0.00,CLR,,0.00,WeatherDisplay:10.37,2013-01-07 05:27:00,
2013-01-07 00:32:00,32.5,25.1,30.25,NW,304,5.0,5.0,74,0.00,CLR,,0.00,WeatherDisplay:10.37,2013-01-07 05:32:00,
2013-01-07 00:37:00,32.5,25.1,30.25,WNW,286,8.1,8.1,74,0.00,CLR,,0.00,WeatherDisplay:10.37,2013-01-07 05:37:00,
2013-01-07 00:42:00,32.4,25.0,30.26,NW,309,8.0,8.0,74,0.00,CLR,,0.00,WeatherDisplay:10.37,2013-01-07 05:42:00,
2013-01-07 00:47:00,32.4,25.0,30.26,West,265,8.0,8.0,74,0.00,CLR,,0.00,WeatherDisplay:10.37,2013-01-07 05:47:00,
2013-01-07 00:52:00,32.3,25.3,30.26,WNW,283,5.0,5.0,75,0.00,CLR,,0.00,WeatherDisplay:10.37,2013-01-07 05:52:00,
2013-01-07 00:57:00,32.2,25.2,30.27,West,276,9.0,9.0,75,0.00,CLR,,0.00,WeatherDisplay:10.37,2013-01-07 05:57:00,
2013-01-07 01:02:00,32.2,25.2,30.27,West,275,3.5,3.5,75,0.00,CLR,,0.00,WeatherDisplay:10.37,2013-01-07 06:02:00,
2013-01-07 01:07:00,32.1,25.1,30.27,West,275,4.0,4.0,75,0.00,CLR,,0.00,WeatherDisplay:10.37,2013-01-07 06:07:00,
2013-01-07 01:12:00,32.1,25.1,30.27,WNW,291,3.5,3.5,75,0.00,CLR,,0.00,WeatherDisplay:10.37,2013-01-07 06:12:00,
2013-01-07 01:17:00,32.0,25.0,30.28,WSW,252,11.0,11.0,75,0.00,CLR,,0.00,WeatherDisplay:10.37,2013-01-07 06:17:00,
2013-01-07 01:22:00,31.9,24.9,30.28,WNW,296,10.4,10.4,75,0.00,CLR,,0.00,WeatherDisplay:10.37,2013-01-07 06:22:00,
2013-01-07 01:27:00,31.9,24.9,30.28,NW,318,7.0,7.0,75,0.00,CLR,,0.00,WeatherDisplay:10.37,2013-01-07 06:27:00,
2013-01-07 01:32:00,31.8,24.8,30.29,WSW,256,7.0,7.0,75,0.00,CLR,,0.00,WeatherDisplay:10.37,2013-01-07 06:32:00,
2013-01-07 01:37:00,31.7,25.0,30.29,WNW,297,14.0,14.0,76,0.00,CLR,,0.00,WeatherDisplay:10.37,2013-01-07 06:37:00,
2013-01-07 01:42:00,31.6,24.9,30.30,NW,305,11.5,11.5,76,0.00,CLR,,0.00,WeatherDisplay:10.37,2013-01-07 06:42:00,
2013-01-07 01:47:00,31.5,24.8,30.30,WNW,298,8.1,8.1,76,0.00,CLR,,0.00,WeatherDisplay:10.37,2013-01-07 06:47:00,
2013-01-07 01:52:00,31.4,24.4,30.30,WNW,302,11.5,11.5,75,0.00,CLR,,0.00,WeatherDisplay:10.37,2013-01-07 06:52:00,
2013-01-07 01:57:00,31.4,24.7,30.30,WNW,296,5.0,5.0,76,0.00,CLR,,0.00,WeatherDisplay:10.37,2013-01-07 06:57:00,
2013-01-07 02:02:00,31.3,24.3,30.30,NW,315,7.0,7.0,75,0.00,CLR,,0.00,WeatherDisplay:10.37,2013-01-07 07:02:00,
2013-01-07 02:07:00,31.3,24.3,30.30,West,263,5.0,5.0,75,0.00,CLR,,0.00,WeatherDisplay:10.37,2013-01-07 07:07:00,
2013-01-07 02:12:00,31.2,24.2,30.30,WNW,284,8.0,8.0,75,0.00,CLR,,0.00,WeatherDisplay:10.37,2013-01-07 07:12:00,
2013-01-07 02:17:00,31.2,24.2,30.31,WNW,299,6.9,6.9,75,0.00,CLR,,0.00,WeatherDisplay:10.37,2013-01-07 07:17:00,
2013-01-07 02:22:00,31.2,24.5,30.31,WSW,257,6.0,6.0,76,0.00,CLR,,0.00,WeatherDisplay:10.37,2013-01-07 07:22:00,
2013-01-07 02:27:00,31.1,24.1,30.31,NW,314,5.0,5.0,75,0.00,CLR,,0.00,WeatherDisplay:10.37,2013-01-07 07:27:00,
2013-01-07 02:32:00,31.1,24.1,30.31,West,272,8.1,8.1,75,0.00,CLR,,0.00,WeatherDisplay:10.37,2013-01-07 07:32:00,
2013-01-07 02:37:00,31.1,24.1,30.31,WNW,299,5.0,5.0,75,0.00,CLR,,0.00,WeatherDisplay:10.37,2013-01-07 07:37:00,
2013-01-07 02:42:00,31.0,24.0,30.31,WNW,298,4.0,4.0,75,0.00,CLR,,0.00,WeatherDisplay:10.37,2013-01-07 07:42:00,
2013-01-07 02:47:00,31.0,24.3,30.31,West,261,10.4,10.4,76,0.00,CLR,,0.00,WeatherDisplay:10.37,2013-01-07 07:47:00,
2013-01-07 02:52:00,30.9,26.1,30.32,WSW,258,8.0,8.0,82,0.00,CLR,,0.00,WeatherDisplay:10.37,2013-01-07 07:52:00,
2013-01-07 02:57:00,30.8,24.1,30.32,West,269,7.0,7.0,76,0.00,CLR,,0.00,WeatherDisplay:10.37,2013-01-07 07:57:00,
2013-01-07 03:02:00,30.8,24.1,30.32,West,277,6.0,6.0,76,0.00,CLR,,0.00,WeatherDisplay:10.37,2013-01-07 08:02:00,
2013-01-07 03:07:00,30.8,24.1,30.33,WNW,292,9.2,9.2,76,0.00,CLR,,0.00,WeatherDisplay:10.37,2013-01-07 08:07:00,
2013-01-07 03:12:00,30.8,24.1,30.33,NW,324,4.6,4.6,76,0.00,CLR,,0.00,WeatherDisplay:10.37,2013-01-07 08:12:00,
2013-01-07 03:17:00,30.7,24.0,30.33,WNW,289,3.5,3.5,76,0.00,CLR,,0.00,WeatherDisplay:10.37,2013-01-07 08:17:00,
2013-01-07 03:22:00,30.8,24.1,30.33,WNW,301,6.0,6.0,76,0.00,CLR,,0.00,WeatherDisplay:10.37,2013-01-07 08:22:00,
2013-01-07 03:27:00,30.8,24.1,30.33,WNW,297,4.0,4.0,76,0.00,CLR,,0.00,WeatherDisplay:10.37,2013-01-07 08:27:00,
2013-01-07 03:32:00,30.7,24.0,30.34,WNW,289,6.0,6.0,76,0.00,CLR,,0.00,WeatherDisplay:10.37,2013-01-07 08:32:00,
2013-01-07 03:37:00,30.8,24.1,30.34,West,270,8.1,8.1,76,0.00,CLR,,0.00,WeatherDisplay:10.37,2013-01-07 08:37:00,
2013-01-07 03:42:00,30.7,24.0,30.34,NW,318,10.0,10.0,76,0.00,CLR,,0.00,WeatherDisplay:10.37,2013-01-07 08:42:00,
2013-01-07 03:47:00,30.7,24.0,30.34,WNW,302,6.0,6.0,76,0.00,CLR,,0.00,WeatherDisplay:10.37,2013-01-07 08:47:00,
2013-01-07 03:52:00,30.7,24.0,30.34,West,259,6.0,6.0,76,0.00,CLR,,0.00,WeatherDisplay:10.37,2013-01-07 08:52:00,
2013-01-07 03:57:00,30.7,24.0,30.34,West,263,7.0,7.0,76,0.00,CLR,,0.00,WeatherDisplay:10.37,2013-01-07 08:57:00,
2013-01-07 04:02:00,30.6,23.9,30.34,West,269,5.0,5.0,76,0.00,CLR,,0.00,WeatherDisplay:10.37,2013-01-07 09:02:00,
2013-01-07 04:07:00,30.6,23.9,30.34,West,269,11.5,11.5,76,0.00,CLR,,0.00,WeatherDisplay:10.37,2013-01-07 09:07:00,
2013-01-07 04:12:00,30.6,23.9,30.34,West,261,5.0,5.0,76,0.00,CLR,,0.00,WeatherDisplay:10.37,2013-01-07 09:12:00,
2013-01-07 04:17:00,30.6,23.9,30.34,WNW,288,6.0,6.0,76,0.00,CLR,,0.00,WeatherDisplay:10.37,2013-01-07 09:17:00,
2013-01-07 04:22:00,30.5,23.8,30.34,WNW,284,12.0,12.0,76,0.00,CLR,,0.00,WeatherDisplay:10.37,2013-01-07 09:22:00,
2013-01-07 04:27:00,30.4,24.1,30.35,West,263,9.2,9.2,77,0.00,CLR,,0.00,WeatherDisplay:10.37,2013-01-07 09:27:00,
2013-01-07 04:32:00,30.3,24.0,30.35,West,262,8.1,8.1,77,0.00,CLR,,0.00,WeatherDisplay:10.37,2013-01-07 09:32:00,
2013-01-07 04:37:00,30.2,23.9,30.34,NW,307,9.2,9.2,77,0.00,CLR,,0.00,WeatherDisplay:10.37,2013-01-07 09:37:00,
2013-01-07 04:42:00,30.1,23.8,30.34,West,269,11.5,11.5,77,0.00,CLR,,0.00,WeatherDisplay:10.37,2013-01-07 09:42:00,
2013-01-07 04:47:00,30.0,23.7,30.34,WSW,252,11.5,11.5,77,0.00,CLR,,0.00,WeatherDisplay:10.37,2013-01-07 09:47:00,
2013-01-07 04:52:00,29.9,23.6,30.35,West,259,9.0,9.0,77,0.00,CLR,,0.00,WeatherDisplay:10.37,2013-01-07 09:52:00,
2013-01-07 04:57:00,29.8,23.5,30.35,West,267,10.0,10.0,77,0.00,CLR,,0.00,WeatherDisplay:10.37,2013-01-07 09:57:00,
2013-01-07 05:02:00,29.8,23.8,30.35,WSW,256,11.0,11.0,78,0.00,CLR,,0.00,WeatherDisplay:10.37,2013-01-07 10:02:00,
2013-01-07 05:07:00,29.8,23.8,30.35,West,264,8.1,8.1,78,0.00,CLR,,0.00,WeatherDisplay:10.37,2013-01-07 10:07:00,
2013-01-07 05:12:00,29.7,23.7,30.35,WSW,244,9.2,9.2,78,0.00,CLR,,0.00,WeatherDisplay:10.37,2013-01-07 10:12:00,
2013-01-07 05:17:00,29.7,23.7,30.35,West,266,9.2,9.2,78,0.00,CLR,,0.00,WeatherDisplay:10.37,2013-01-07 10:17:00,
2013-01-07 05:22:00,29.7,23.7,30.36,WNW,283,9.2,9.2,78,0.00,CLR,,0.00,WeatherDisplay:10.37,2013-01-07 10:22:00,
2013-01-07 05:27:00,29.6,23.6,30.36,West,268,10.4,10.4,78,0.00,CLR,,0.00,WeatherDisplay:10.37,2013-01-07 10:27:00,
2013-01-07 05:32:00,29.6,23.6,30.36,West,259,9.2,9.2,78,0.00,CLR,,0.00,WeatherDisplay:10.37,2013-01-07 10:32:00,
2013-01-07 05:37:00,29.6,23.6,30.36,West,265,6.9,6.9,78,0.00,CLR,,0.00,WeatherDisplay:10.37,2013-01-07 10:37:00,
2013-01-07 05:42:00,29.6,23.6,30.36,West,263,7.0,7.0,78,0.00,CLR,,0.00,WeatherDisplay:10.37,2013-01-07 10:42:00,
2013-01-07 05:47:00,29.6,23.6,30.37,WSW,257,5.8,5.8,78,0.00,CLR,,0.00,WeatherDisplay:10.37,2013-01-07 10:47:00,
2013-01-07 05:52:00,29.5,23.5,30.36,WSW,240,8.1,8.1,78,0.00,CLR,,0.00,WeatherDisplay:10.37,2013-01-07 10:52:00,
2013-01-07 05:57:00,29.5,23.5,30.36,WSW,254,9.0,9.0,78,0.00,CLR,,0.00,WeatherDisplay:10.37,2013-01-07 10:57:00,
2013-01-07 06:02:00,29.4,23.4,30.36,WSW,254,9.2,9.2,78,0.00,CLR,,0.00,WeatherDisplay:10.37,2013-01-07 11:02:00,
2013-01-07 06:07:00,29.4,23.4,30.37,WSW,254,8.1,8.1,78,0.00,CLR,,0.00,WeatherDisplay:10.37,2013-01-07 11:07:00,
2013-01-07 06:12:00,29.5,23.5,30.38,West,273,3.5,3.5,78,0.00,CLR,,0.00,WeatherDisplay:10.37,2013-01-07 11:12:00,
2013-01-07 06:17:00,29.5,23.5,30.38,West,262,6.0,6.0,78,0.00,CLR,,0.00,WeatherDisplay:10.37,2013-01-07 11:17:00,
2013-01-07 06:22:00,29.5,23.5,30.38,West,265,6.9,6.9,78,0.00,CLR,,0.00,WeatherDisplay:10.37,2013-01-07 11:22:00,
2013-01-07 06:27:00,29.4,23.4,30.38,West,269,7.0,7.0,78,0.00,CLR,,0.00,WeatherDisplay:10.37,2013-01-07 11:27:00,
2013-01-07 06:32:00,29.4,23.4,30.38,WSW,257,7.0,7.0,78,0.00,CLR,,0.00,WeatherDisplay:10.37,2013-01-07 11:32:00,
2013-01-07 06:37:00,29.4,23.4,30.38,West,265,10.0,10.0,78,0.00,CLR,,0.00,WeatherDisplay:10.37,2013-01-07 11:37:00,
2013-01-07 06:43:00,29.3,23.3,30.39,West,267,7.0,7.0,78,0.00,CLR,,0.00,WeatherDisplay:10.37,2013-01-07 11:43:00,
2013-01-07 06:48:00,29.3,23.3,30.39,WSW,240,5.0,5.0,78,0.00,CLR,,0.00,WeatherDisplay:10.37,2013-01-07 11:48:00,
2013-01-07 06:53:00,29.3,23.3,30.39,WNW,284,4.0,4.0,78,0.00,CLR,,0.00,WeatherDisplay:10.37,2013-01-07 11:53:00,
2013-01-07 06:58:00,29.3,23.3,30.39,West,267,5.0,5.0,78,0.00,CLR,,0.00,WeatherDisplay:10.37,2013-01-07 11:58:00,
2013-01-07 07:03:00,29.3,23.3,30.39,West,267,6.0,6.0,78,0.00,CLR,,0.00,WeatherDisplay:10.37,2013-01-07 12:03:00,
2013-01-07 07:08:00,29.2,23.2,30.39,WSW,254,10.4,10.4,78,0.00,CLR,,0.00,WeatherDisplay:10.37,2013-01-07 12:08:00,
2013-01-07 07:13:00,29.3,23.3,30.39,West,265,10.4,10.4,78,0.00,CLR,,0.00,WeatherDisplay:10.37,2013-01-07 12:13:00,
2013-01-07 07:18:00,29.3,23.3,30.40,WSW,255,7.0,7.0,78,0.00,CLR,,0.00,WeatherDisplay:10.37,2013-01-07 12:18:00,
2013-01-07 07:23:00,29.3,23.3,30.40,NW,319,3.5,3.5,78,0.00,CLR,,0.00,WeatherDisplay:10.37,2013-01-07 12:23:00,
2013-01-07 07:28:00,29.3,23.3,30.40,WSW,257,5.0,5.0,78,0.00,CLR,,0.00,WeatherDisplay:10.37,2013-01-07 12:28:00,
2013-01-07 07:33:00,29.2,22.9,30.40,SW,236,6.0,6.0,77,0.00,CLR,,0.00,WeatherDisplay:10.37,2013-01-07 12:33:00,
2013-01-07 07:38:00,29.2,23.2,30.40,SW,236,8.0,8.0,78,0.00,CLR,,0.00,WeatherDisplay:10.37,2013-01-07 12:38:00,
2013-01-07 07:43:00,29.2,23.2,30.40,WSW,245,8.1,8.1,78,0.00,CLR,,0.00,WeatherDisplay:10.37,2013-01-07 12:43:00,
2013-01-07 07:48:00,29.2,23.2,30.41,West,267,5.0,5.0,78,0.00,CLR,,0.00,WeatherDisplay:10.37,2013-01-07 12:48:00,
2013-01-07 07:53:00,29.2,23.2,30.41,WSW,250,6.0,6.0,78,0.00,CLR,,0.00,WeatherDisplay:10.37,2013-01-07 12:53:00,
2013-01-07 07:58:00,29.2,23.2,30.41,WSW,256,10.4,10.4,78,0.00,CLR,,0.00,WeatherDisplay:10.37,2013-01-07 12:58:00,
2013-01-07 08:03:00,29.1,23.1,30.42,SW,232,9.0,9.0,78,0.00,CLR,,0.00,WeatherDisplay:10.37,2013-01-07 13:03:00,
2013-01-07 08:08:00,29.1,22.8,30.42,West,261,9.0,9.0,77,0.00,CLR,,0.00,WeatherDisplay:10.37,2013-01-07 13:08:00,
2013-01-07 08:13:00,29.1,22.8,30.42,WSW,238,10.4,10.4,77,0.00,CLR,,0.00,WeatherDisplay:10.37,2013-01-07 13:13:00,
2013-01-07 08:18:00,29.2,22.9,30.42,WSW,252,9.2,9.2,77,0.00,CLR,,0.00,WeatherDisplay:10.37,2013-01-07 13:18:00,
2013-01-07 08:23:00,29.2,22.9,30.43,WSW,238,8.1,8.1,77,0.00,CLR,,0.00,WeatherDisplay:10.37,2013-01-07 13:23:00,
2013-01-07 08:28:00,29.2,22.9,30.43,WSW,245,10.0,10.0,77,0.00,CLR,,0.00,WeatherDisplay:10.37,2013-01-07 13:28:00,
2013-01-07 08:33:00,29.2,22.9,30.43,SW,234,10.0,10.0,77,0.00,CLR,,0.00,WeatherDisplay:10.37,2013-01-07 13:33:00,
2013-01-07 08:38:00,29.2,22.9,30.43,WSW,257,10.4,10.4,77,0.00,CLR,,0.00,WeatherDisplay:10.37,2013-01-07 13:38:00,
2013-01-07 08:43:00,29.2,22.9,30.44,West,259,10.4,10.4,77,0.00,CLR,,0.00,WeatherDisplay:10.37,2013-01-07 13:43:00,
2013-01-07 08:48:00,29.2,23.2,30.44,WSW,250,7.0,7.0,78,0.00,CLR,,0.00,WeatherDisplay:10.37,2013-01-07 13:48:00,
2013-01-07 08:53:00,29.3,23.3,30.44,West,265,9.2,9.2,78,0.00,CLR,,0.00,WeatherDisplay:10.37,2013-01-07 13:53:00,
2013-01-07 08:58:00,29.3,23.3,30.45,WSW,237,8.1,8.1,78,0.00,CLR,,0.00,WeatherDisplay:10.37,2013-01-07 13:58:00,
2013-01-07 09:03:00,29.3,23.3,30.45,West,280,9.2,9.2,78,0.00,CLR,,0.00,WeatherDisplay:10.37,2013-01-07 14:03:00,
2013-01-07 09:08:00,29.4,23.1,30.45,WSW,245,9.2,9.2,77,0.00,CLR,,0.00,WeatherDisplay:10.37,2013-01-07 14:08:00,
2013-01-07 09:13:00,29.4,23.4,30.46,WSW,252,9.2,9.2,78,0.00,CLR,,0.00,WeatherDisplay:10.37,2013-01-07 14:13:00,
2013-01-07 09:18:00,29.4,23.4,30.46,WSW,250,12.7,12.7,78,0.00,CLR,,0.00,WeatherDisplay:10.37,2013-01-07 14:18:00,
2013-01-07 09:23:00,29.5,23.2,30.46,West,261,12.0,12.0,77,0.00,CLR,,0.00,WeatherDisplay:10.37,2013-01-07 14:23:00,
2013-01-07 09:28:00,29.5,23.5,30.46,WSW,258,12.0,12.0,78,0.00,CLR,,0.00,WeatherDisplay:10.37,2013-01-07 14:28:00,
2013-01-07 09:33:00,29.6,23.6,30.46,WSW,243,10.4,10.4,78,0.00,CLR,,0.00,WeatherDisplay:10.37,2013-01-07 14:33:00,
2013-01-07 09:38:00,29.6,23.3,30.46,WSW,254,13.0,13.0,77,0.00,CLR,,0.00,WeatherDisplay:10.37,2013-01-07 14:38:00,
2013-01-07 09:43:00,29.6,23.3,30.46,WSW,238,10.4,10.4,77,0.00,CLR,,0.00,WeatherDisplay:10.37,2013-01-07 14:43:00,
2013-01-07 09:48:00,29.7,23.4,30.47,West,280,12.0,12.0,77,0.00,CLR,,0.00,WeatherDisplay:10.37,2013-01-07 14:48:00,
2013-01-07 09:53:00,29.7,23.4,30.47,WSW,238,12.0,12.0,77,0.00,CLR,,0.00,WeatherDisplay:10.37,2013-01-07 14:53:00,
2013-01-07 09:58:00,29.8,23.5,30.48,WSW,253,11.5,11.5,77,0.00,CLR,,0.00,WeatherDisplay:10.37,2013-01-07 14:58:00,
2013-01-07 10:03:00,29.8,23.5,30.48,WSW,257,10.4,10.4,77,0.00,CLR,,0.00,WeatherDisplay:10.37,2013-01-07 15:03:00,
2013-01-07 10:08:00,29.9,23.6,30.48,West,259,9.2,9.2,77,0.00,CLR,,0.00,WeatherDisplay:10.37,2013-01-07 15:08:00,
2013-01-07 10:13:00,29.9,23.6,30.48,West,261,11.5,11.5,77,0.00,CLR,,0.00,WeatherDisplay:10.37,2013-01-07 15:13:00,
2013-01-07 10:18:00,29.9,23.6,30.48,WSW,251,12.0,12.0,77,0.00,CLR,,0.00,WeatherDisplay:10.37,2013-01-07 15:18:00,
2013-01-07 10:23:00,30.0,23.7,30.49,WSW,252,12.0,12.0,77,0.00,CLR,,0.00,WeatherDisplay:10.37,2013-01-07 15:23:00,
2013-01-07 10:28:00,30.1,23.8,30.49,West,264,11.5,11.5,77,0.00,CLR,,0.00,WeatherDisplay:10.37,2013-01-07 15:28:00,
2013-01-07 10:33:00,30.2,23.9,30.49,West,261,8.1,8.1,77,0.00,CLR,,0.00,WeatherDisplay:10.37,2013-01-07 15:33:00,
2013-01-07 10:38:00,30.3,24.0,30.49,West,267,9.2,9.2,77,0.00,CLR,,0.00,WeatherDisplay:10.37,2013-01-07 15:38:00,
2013-01-07 10:43:00,30.5,24.1,30.49,West,268,6.0,6.0,77,0.00,CLR,,0.00,WeatherDisplay:10.37,2013-01-07 15:43:00,
2013-01-07 10:48:00,30.5,24.1,30.49,WSW,240,8.1,8.1,77,0.00,CLR,,0.00,WeatherDisplay:10.37,2013-01-07 15:48:00,
2013-01-07 10:53:00,30.6,24.2,30.49,West,262,9.2,9.2,77,0.00,CLR,,0.00,WeatherDisplay:10.37,2013-01-07 15:53:00,
2013-01-07 10:58:00,30.7,24.3,30.49,WSW,251,9.2,9.2,77,0.00,CLR,,0.00,WeatherDisplay:10.37,2013-01-07 15:58:00,
2013-01-07 11:03:00,30.8,24.4,30.49,West,261,8.1,8.1,77,0.00,CLR,,0.00,WeatherDisplay:10.37,2013-01-07 16:03:00,
2013-01-07 11:08:00,30.7,24.0,30.49,WSW,250,9.2,9.2,76,0.00,CLR,,0.00,WeatherDisplay:10.37,2013-01-07 16:08:00,
2013-01-07 11:13:00,30.8,24.1,30.49,WSW,257,9.2,9.2,76,0.00,CLR,,0.00,WeatherDisplay:10.37,2013-01-07 16:13:00,
2013-01-07 11:18:00,30.9,24.2,30.48,West,271,11.5,11.5,76,0.00,CLR,,0.00,WeatherDisplay:10.37,2013-01-07 16:18:00,
2013-01-07 11:23:00,30.8,24.1,30.49,WSW,252,11.5,11.5,76,0.00,CLR,,0.00,WeatherDisplay:10.37,2013-01-07 16:23:00,
2013-01-07 11:28:00,31.0,24.3,30.48,WSW,245,12.0,12.0,76,0.00,CLR,,0.00,WeatherDisplay:10.37,2013-01-07 16:28:00,
2013-01-07 11:33:00,31.0,24.3,30.48,West,261,10.4,10.4,76,0.00,CLR,,0.00,WeatherDisplay:10.37,2013-01-07 16:33:00,
2013-01-07 11:38:00,31.1,24.1,30.48,SW,234,10.4,10.4,75,0.00,CLR,,0.00,WeatherDisplay:10.37,2013-01-07 16:38:00,
2013-01-07 11:43:00,31.3,24.3,30.48,WSW,257,8.0,8.0,75,0.00,CLR,,0.00,WeatherDisplay:10.37,2013-01-07 16:43:00,
2013-01-07 11:48:00,31.4,24.4,30.48,WSW,257,11.5,11.5,75,0.00,CLR,,0.00,WeatherDisplay:10.37,2013-01-07 16:48:00,
2013-01-07 11:53:00,31.3,24.3,30.48,WSW,254,8.1,8.1,75,0.00,CLR,,0.00,WeatherDisplay:10.37,2013-01-07 16:53:00,
2013-01-07 11:58:00,31.4,24.4,30.47,SW,234,10.4,10.4,75,0.00,CLR,,0.00,WeatherDisplay:10.37,2013-01-07 16:58:00,
2013-01-07 12:03:00,31.5,24.5,30.47,WSW,242,10.0,10.0,75,0.00,CLR,,0.00,WeatherDisplay:10.37,2013-01-07 17:03:00,
2013-01-07 12:08:00,31.5,24.5,30.47,SW,226,9.2,9.2,75,0.00,CLR,,0.00,WeatherDisplay:10.37,2013-01-07 17:08:00,
2013-01-07 12:13:00,31.7,24.7,30.47,WSW,237,9.2,9.2,75,0.00,CLR,,0.00,WeatherDisplay:10.37,2013-01-07 17:13:00,
2013-01-07 12:18:00,31.7,24.4,30.46,West,259,9.2,9.2,74,0.00,CLR,,0.00,WeatherDisplay:10.37,2013-01-07 17:18:00,
2013-01-07 12:23:00,31.6,24.3,30.46,SW,229,8.1,8.1,74,0.00,CLR,,0.00,WeatherDisplay:10.37,2013-01-07 17:23:00,
2013-01-07 12:28:00,31.9,24.6,30.46,WSW,254,8.1,8.1,74,0.00,CLR,,0.00,WeatherDisplay:10.37,2013-01-07 17:28:00,
2013-01-07 12:33:00,32.0,24.3,30.45,SW,234,9.2,9.2,73,0.00,CLR,,0.00,WeatherDisplay:10.37,2013-01-07 17:33:00,
2013-01-07 12:38:00,32.2,24.5,30.45,SW,227,10.4,10.4,73,0.00,CLR,,0.00,WeatherDisplay:10.37,2013-01-07 17:38:00,
2013-01-07 12:43:00,32.1,24.7,30.45,SW,221,11.5,11.5,74,0.00,CLR,,0.00,WeatherDisplay:10.37,2013-01-07 17:43:00,
2013-01-07 12:48:00,32.3,24.6,30.45,SW,234,11.0,11.0,73,0.00,CLR,,0.00,WeatherDisplay:10.37,2013-01-07 17:48:00,
2013-01-07 12:53:00,32.4,24.7,30.45,SW,229,10.4,10.4,73,0.00,CLR,,0.00,WeatherDisplay:10.37,2013-01-07 17:53:00,
2013-01-07 12:58:00,32.6,24.6,30.44,WSW,245,8.1,8.1,72,0.00,CLR,,0.00,WeatherDisplay:10.37,2013-01-07 17:58:00,
2013-01-07 13:03:00,32.6,24.6,30.44,WSW,246,9.2,9.2,72,0.00,CLR,,0.00,WeatherDisplay:10.37,2013-01-07 18:03:00,
2013-01-07 13:08:00,32.8,24.8,30.44,SW,229,9.0,9.0,72,0.00,CLR,,0.00,WeatherDisplay:10.37,2013-01-07 18:08:00,
2013-01-07 13:13:00,32.9,24.5,30.44,West,267,11.5,11.5,71,0.00,CLR,,0.00,WeatherDisplay:10.37,2013-01-07 18:13:00,
2013-01-07 13:18:00,32.9,24.5,30.43,WSW,250,8.1,8.1,71,0.00,CLR,,0.00,WeatherDisplay:10.37,2013-01-07 18:18:00,
2013-01-07 13:23:00,32.8,24.4,30.43,WSW,254,6.0,6.0,71,0.00,CLR,,0.00,WeatherDisplay:10.37,2013-01-07 18:23:00,
2013-01-07 13:28:00,32.7,24.3,30.43,West,270,9.2,9.2,71,0.00,CLR,,0.00,WeatherDisplay:10.37,2013-01-07 18:28:00,
2013-01-07 13:33:00,32.8,23.7,30.43,SW,225,8.0,8.0,69,0.00,CLR,,0.00,WeatherDisplay:10.37,2013-01-07 18:33:00,
2013-01-07 13:38:00,32.8,23.7,30.43,SW,234,8.1,8.1,69,0.00,CLR,,0.00,WeatherDisplay:10.37,2013-01-07 18:38:00,
2013-01-07 13:43:00,32.9,23.8,30.42,WSW,242,8.1,8.1,69,0.00,CLR,,0.00,WeatherDisplay:10.37,2013-01-07 18:43:00,
2013-01-07 13:48:00,32.9,23.8,30.42,WSW,251,4.0,4.0,69,0.00,CLR,,0.00,WeatherDisplay:10.37,2013-01-07 18:48:00,
2013-01-07 13:53:00,33.0,23.6,30.42,WSW,250,9.2,9.2,68,0.00,CLR,,0.00,WeatherDisplay:10.37,2013-01-07 18:53:00,
2013-01-07 13:58:00,32.8,23.7,30.43,SW,236,9.2,9.2,69,0.00,CLR,,0.00,WeatherDisplay:10.37,2013-01-07 18:58:00,
2013-01-07 14:03:00,33.0,23.9,30.42,SW,228,6.9,6.9,69,0.00,CLR,,0.00,WeatherDisplay:10.37,2013-01-07 19:03:00,
2013-01-07 14:08:00,33.2,23.8,30.42,SW,236,6.0,6.0,68,0.00,CLR,,0.00,WeatherDisplay:10.37,2013-01-07 19:08:00,
2013-01-07 14:13:00,33.3,23.5,30.42,SW,232,12.7,12.7,67,0.00,CLR,,0.00,WeatherDisplay:10.37,2013-01-07 19:13:00,
2013-01-07 14:18:00,33.2,23.4,30.42,SW,217,8.1,8.1,67,0.00,CLR,,0.00,WeatherDisplay:10.37,2013-01-07 19:18:00,
2013-01-07 14:23:00,33.2,23.4,30.42,WSW,237,7.0,7.0,67,0.00,CLR,,0.00,WeatherDisplay:10.37,2013-01-07 19:23:00,
2013-01-07 14:28:00,33.2,23.4,30.42,SSW,200,4.0,4.0,67,0.00,CLR,,0.00,WeatherDisplay:10.37,2013-01-07 19:28:00,
2013-01-07 14:33:00,33.2,23.1,30.42,SW,232,6.0,6.0,66,0.00,CLR,,0.00,WeatherDisplay:10.37,2013-01-07 19:33:00,
2013-01-07 14:38:00,33.3,23.5,30.42,SW,221,6.9,6.9,67,0.00,CLR,,0.00,WeatherDisplay:10.37,2013-01-07 19:38:00,
2013-01-07 14:43:00,33.3,23.5,30.42,SW,221,6.0,6.0,67,0.00,CLR,,0.00,WeatherDisplay:10.37,2013-01-07 19:43:00,
2013-01-07 14:48:00,33.1,23.3,30.42,WSW,254,5.0,5.0,67,0.00,CLR,,0.00,WeatherDisplay:10.37,2013-01-07 19:48:00,
2013-01-07 14:53:00,33.1,23.3,30.42,WSW,237,4.6,4.6,67,0.00,CLR,,0.00,WeatherDisplay:10.37,2013-01-07 19:53:00,
2013-01-07 14:58:00,33.7,23.9,30.42,SSW,206,4.0,4.0,67,0.00,CLR,,0.00,WeatherDisplay:10.37,2013-01-07 19:58:00,
2013-01-07 15:03:00,34.3,23.7,30.42,SW,216,10.0,10.0,65,0.00,CLR,,0.00,WeatherDisplay:10.37,2013-01-07 20:03:00,
2013-01-07 15:08:00,34.1,23.6,30.42,SW,215,11.5,11.5,65,0.00,CLR,,0.00,WeatherDisplay:10.37,2013-01-07 20:08:00,
2013-01-07 15:13:00,34.0,23.1,30.41,SW,229,10.0,10.0,64,0.00,CLR,,0.00,WeatherDisplay:10.37,2013-01-07 20:13:00,
2013-01-07 15:18:00,34.1,23.6,30.41,WSW,253,7.0,7.0,65,0.00,CLR,,0.00,WeatherDisplay:10.37,2013-01-07 20:18:00,
2013-01-07 15:21:00,34.0,23.5,30.41,SW,235,9.0,9.0,65,0.00,CLR,,0.00,WeatherDisplay:10.37,2013-01-07 20:21:00,
2013-01-07 15:26:00,33.8,23.3,30.42,WSW,251,9.2,9.2,65,0.00,CLR,,0.00,WeatherDisplay:10.37,2013-01-07 20:26:00,
2013-01-07 15:31:00,33.7,23.5,30.42,SW,232,12.0,12.0,66,0.00,CLR,,0.00,WeatherDisplay:10.37,2013-01-07 20:31:00,
2013-01-07 15:36:00,33.3,23.2,30.42,WSW,241,10.4,10.4,66,0.00,CLR,,0.00,WeatherDisplay:10.37,2013-01-07 20:36:00,
2013-01-07 15:41:00,32.9,22.8,30.42,SW,226,6.9,6.9,66,0.00,CLR,,0.00,WeatherDisplay:10.37,2013-01-07 20:41:00,
2013-01-07 15:46:00,33.1,23.0,30.42,West,263,6.9,6.9,66,0.00,CLR,,0.00,WeatherDisplay:10.37,2013-01-07 20:46:00,
2013-01-07 15:51:00,33.3,23.5,30.42,WSW,253,6.0,6.0,67,0.00,CLR,,0.00,WeatherDisplay:10.37,2013-01-07 20:51:00,
2013-01-07 15:56:00,33.4,23.6,30.42,WSW,242,8.1,8.1,67,0.00,CLR,,0.00,WeatherDisplay:10.37,2013-01-07 20:56:00,
2013-01-07 16:01:00,33.4,23.3,30.42,SW,224,11.0,11.0,66,0.01,RA,,0.01,WeatherDisplay:10.37,2013-01-07 21:01:00,
2013-01-07 16:06:00,33.2,23.1,30.42,SW,226,10.4,10.4,66,0.01,RA,,0.01,WeatherDisplay:10.37,2013-01-07 21:06:00,
2013-01-07 16:11:00,32.9,22.8,30.41,West,259,7.0,7.0,66,0.01,CLR,,0.01,WeatherDisplay:10.37,2013-01-07 21:11:00,
2013-01-07 16:16:00,33.1,23.0,30.41,SSW,206,8.1,8.1,66,0.01,CLR,,0.01,WeatherDisplay:10.37,2013-01-07 21:16:00,
2013-01-07 16:21:00,33.2,23.1,30.41,SSW,199,6.0,6.0,66,0.01,CLR,,0.01,WeatherDisplay:10.37,2013-01-07 21:21:00,
2013-01-07 16:26:00,33.1,23.0,30.41,SSW,199,9.0,9.0,66,0.01,CLR,,0.01,WeatherDisplay:10.37,2013-01-07 21:26:00,
2013-01-07 16:31:00,33.0,22.9,30.41,South,187,7.0,7.0,66,0.01,CLR,,0.01,WeatherDisplay:10.37,2013-01-07 21:31:00,
2013-01-07 16:36:00,32.8,22.7,30.41,SSW,202,7.0,7.0,66,0.01,CLR,,0.01,WeatherDisplay:10.37,2013-01-07 21:36:00,
2013-01-07 16:41:00,32.5,22.4,30.41,SSW,198,8.1,8.1,66,0.01,CLR,,0.01,WeatherDisplay:10.37,2013-01-07 21:41:00,
2013-01-07 16:46:00,32.5,22.4,30.41,SSW,206,6.0,6.0,66,0.01,CLR,,0.01,WeatherDisplay:10.37,2013-01-07 21:46:00,
2013-01-07 16:51:00,32.2,22.1,30.41,SSW,213,7.0,7.0,66,0.01,CLR,,0.01,WeatherDisplay:10.37,2013-01-07 21:51:00,
2013-01-07 16:56:00,32.0,21.9,30.41,SSW,205,7.0,7.0,66,0.01,CLR,,0.01,WeatherDisplay:10.37,2013-01-07 21:56:00,
2013-01-07 17:01:00,31.8,22.1,30.40,SSW,199,9.0,9.0,67,0.00,CLR,,0.01,WeatherDisplay:10.37,2013-01-07 22:01:00,
2013-01-07 17:06:00,31.5,21.8,30.41,SSW,198,9.2,9.2,67,0.00,CLR,,0.01,WeatherDisplay:10.37,2013-01-07 22:06:00,
2013-01-07 17:11:00,31.2,21.9,30.41,South,188,13.0,13.0,68,0.00,CLR,,0.01,WeatherDisplay:10.37,2013-01-07 22:11:00,
2013-01-07 17:16:00,31.1,21.8,30.40,SSW,196,9.2,9.2,68,0.00,CLR,,0.01,WeatherDisplay:10.37,2013-01-07 22:16:00,
2013-01-07 17:21:00,30.9,21.6,30.40,SSW,204,10.0,10.0,68,0.00,CLR,,0.01,WeatherDisplay:10.37,2013-01-07 22:21:00,
2013-01-07 17:26:00,30.7,21.4,30.40,SSW,203,9.0,9.0,68,0.00,CLR,,0.01,WeatherDisplay:10.37,2013-01-07 22:26:00,
2013-01-07 17:31:00,30.5,21.5,30.40,South,190,11.5,11.5,69,0.00,CLR,,0.01,WeatherDisplay:10.37,2013-01-07 22:31:00,
2013-01-07 17:36:00,30.3,21.3,30.40,SSW,213,8.1,8.1,69,0.00,CLR,,0.01,WeatherDisplay:10.37,2013-01-07 22:36:00,
2013-01-07 17:41:00,30.1,21.2,30.40,SSW,199,10.4,10.4,69,0.00,CLR,,0.01,WeatherDisplay:10.37,2013-01-07 22:41:00,
2013-01-07 17:46:00,30.1,21.2,30.40,SSW,195,8.1,8.1,69,0.00,CLR,,0.01,WeatherDisplay:10.37,2013-01-07 22:46:00,
2013-01-07 17:51:00,29.9,21.0,30.40,South,190,8.1,8.1,69,0.00,CLR,,0.01,WeatherDisplay:10.37,2013-01-07 22:51:00,
2013-01-07 17:56:00,29.7,21.1,30.40,SSW,205,7.0,7.0,70,0.00,CLR,,0.01,WeatherDisplay:10.37,2013-01-07 22:56:00,
2013-01-07 18:01:00,29.6,21.0,30.40,SSW,206,8.1,8.1,70,0.00,CLR,,0.01,WeatherDisplay:10.37,2013-01-07 23:01:00,
2013-01-07 18:06:00,29.6,21.0,30.40,SSW,204,7.0,7.0,70,0.00,CLR,,0.01,WeatherDisplay:10.37,2013-01-07 23:06:00,
2013-01-07 18:11:00,29.5,20.9,30.40,SSW,205,8.1,8.1,70,0.00,CLR,,0.01,WeatherDisplay:10.37,2013-01-07 23:11:00,
2013-01-07 18:16:00,29.4,20.8,30.40,SSW,202,8.1,8.1,70,0.00,CLR,,0.01,WeatherDisplay:10.37,2013-01-07 23:16:00,
2013-01-07 18:21:00,29.3,21.1,30.40,SSW,212,7.0,7.0,71,0.00,CLR,,0.01,WeatherDisplay:10.37,2013-01-07 23:21:00,
2013-01-07 18:26:00,29.2,21.0,30.40,SSW,205,7.0,7.0,71,0.00,CLR,,0.01,WeatherDisplay:10.37,2013-01-07 23:26:00,
2013-01-07 18:31:00,29.1,20.9,30.40,SSW,204,7.0,7.0,71,0.00,CLR,,0.01,WeatherDisplay:10.37,2013-01-07 23:31:00,
2013-01-07 18:36:00,29.0,20.8,30.40,SSW,203,8.1,8.1,71,0.00,CLR,,0.01,WeatherDisplay:10.37,2013-01-07 23:36:00,
2013-01-07 18:41:00,29.0,20.8,30.40,SSW,209,7.0,7.0,71,0.00,CLR,,0.01,WeatherDisplay:10.37,2013-01-07 23:41:00,
2013-01-07 18:46:00,28.8,20.6,30.40,South,188,8.1,8.1,71,0.00,CLR,,0.01,WeatherDisplay:10.37,2013-01-07 23:46:00,
2013-01-07 18:51:00,28.8,20.9,30.40,SSW,200,7.0,7.0,72,0.00,CLR,,0.01,WeatherDisplay:10.37,2013-01-07 23:51:00,
2013-01-07 18:56:00,28.8,20.9,30.40,SSW,200,7.0,7.0,72,0.00,CLR,,0.01,WeatherDisplay:10.37,2013-01-07 23:56:00,
2013-01-07 19:01:00,28.7,20.8,30.40,SSW,207,8.0,8.0,72,0.00,CLR,,0.01,WeatherDisplay:10.37,2013-01-08 00:01:00,
2013-01-07 19:06:00,28.6,20.7,30.40,SSW,202,7.0,7.0,72,0.00,CLR,,0.01,WeatherDisplay:10.37,2013-01-08 00:06:00,
2013-01-07 19:11:00,28.4,20.5,30.40,SSW,202,8.1,8.1,72,0.00,CLR,,0.01,WeatherDisplay:10.37,2013-01-08 00:11:00,
2013-01-07 19:16:00,28.4,20.5,30.40,SSW,203,8.1,8.1,72,0.00,CLR,,0.01,WeatherDisplay:10.37,2013-01-08 00:16:00,
2013-01-07 19:21:00,28.3,20.4,30.39,SSW,194,7.0,7.0,72,0.00,CLR,,0.01,WeatherDisplay:10.37,2013-01-08 00:21:00,
2013-01-07 19:26:00,28.2,20.3,30.39,SSW,198,8.1,8.1,72,0.00,CLR,,0.01,WeatherDisplay:10.37,2013-01-08 00:26:00,
2013-01-07 19:31:00,28.1,20.6,30.39,SSW,209,5.8,5.8,73,0.00,CLR,,0.01,WeatherDisplay:10.37,2013-01-08 00:31:00,
2013-01-07 19:36:00,27.6,19.8,30.39,SW,215,4.0,4.0,72,0.00,CLR,,0.01,WeatherDisplay:10.37,2013-01-08 00:36:00,
2013-01-07 19:41:00,27.4,19.9,30.39,SW,229,5.8,5.8,73,0.00,CLR,,0.01,WeatherDisplay:10.37,2013-01-08 00:41:00,
2013-01-07 19:46:00,27.4,19.9,30.39,SW,215,6.0,6.0,73,0.00,CLR,,0.01,WeatherDisplay:10.37,2013-01-08 00:46:00,
2013-01-07 19:51:00,27.2,19.7,30.39,SW,217,4.0,4.0,73,0.00,CLR,,0.01,WeatherDisplay:10.37,2013-01-08 00:51:00,
2013-01-07 19:56:00,27.2,20.0,30.39,SSW,206,5.0,5.0,74,0.00,CLR,,0.01,WeatherDisplay:10.37,2013-01-08 00:56:00,
2013-01-07 20:01:00,27.3,20.1,30.39,SW,221,3.5,3.5,74,0.00,CLR,,0.01,WeatherDisplay:10.37,2013-01-08 01:01:00,
2013-01-07 20:06:00,27.2,20.0,30.38,SSW,213,3.5,3.5,74,0.00,CLR,,0.01,WeatherDisplay:10.37,2013-01-08 01:06:00,
2013-01-07 20:11:00,26.9,19.7,30.38,SSW,211,4.0,4.0,74,0.00,CLR,,0.01,WeatherDisplay:10.37,2013-01-08 01:11:00,
2013-01-07 20:16:00,26.8,19.9,30.38,SW,215,3.5,3.5,75,0.00,CLR,,0.01,WeatherDisplay:10.37,2013-01-08 01:16:00,
2013-01-07 20:21:00,26.8,19.9,30.38,SW,215,3.5,3.5,75,0.00,CLR,,0.01,WeatherDisplay:10.37,2013-01-08 01:21:00,
2013-01-07 20:26:00,26.9,20.0,30.38,SSW,203,5.0,5.0,75,0.00,CLR,,0.01,WeatherDisplay:10.37,2013-01-08 01:26:00,
2013-01-07 20:31:00,26.9,20.0,30.37,SSW,211,4.0,4.0,75,0.00,CLR,,0.01,WeatherDisplay:10.37,2013-01-08 01:31:00,
2013-01-07 20:36:00,26.7,19.8,30.37,SSW,213,4.0,4.0,75,0.00,CLR,,0.01,WeatherDisplay:10.37,2013-01-08 01:36:00,
2013-01-07 20:41:00,26.5,19.6,30.37,SW,217,3.5,3.5,75,0.00,CLR,,0.01,WeatherDisplay:10.37,2013-01-08 01:41:00,
2013-01-07 20:46:00,26.7,20.1,30.38,SSW,211,4.0,4.0,76,0.00,CLR,,0.01,WeatherDisplay:10.37,2013-01-08 01:46:00,
2013-01-07 20:51:00,26.8,19.9,30.38,SW,215,4.0,4.0,75,0.00,CLR,,0.01,WeatherDisplay:10.37,2013-01-08 01:51:00,
2013-01-07 20:56:00,26.7,19.8,30.37,SSW,210,3.5,3.5,75,0.00,CLR,,0.01,WeatherDisplay:10.37,2013-01-08 01:56:00,
2013-01-07 21:01:00,26.6,19.7,30.37,SSW,206,5.0,5.0,75,0.00,CLR,,0.01,WeatherDisplay:10.37,2013-01-08 02:01:00,
2013-01-07 21:06:00,26.6,19.7,30.38,SSW,209,4.0,4.0,75,0.00,CLR,,0.01,WeatherDisplay:10.37,2013-01-08 02:06:00,
2013-01-07 21:11:00,26.2,19.4,30.37,SW,218,4.0,4.0,75,0.00,CLR,,0.01,WeatherDisplay:10.37,2013-01-08 02:11:00,
2013-01-07 21:17:00,26.3,19.8,30.37,SSW,210,4.0,4.0,76,0.00,CLR,,0.01,WeatherDisplay:10.37,2013-01-08 02:17:00,
2013-01-07 21:22:00,26.4,19.9,30.37,SW,217,3.5,3.5,76,0.00,CLR,,0.01,WeatherDisplay:10.37,2013-01-08 02:22:00,
2013-01-07 21:27:00,26.2,19.7,30.37,SSW,204,5.0,5.0,76,0.00,CLR,,0.01,WeatherDisplay:10.37,2013-01-08 02:27:00,
2013-01-07 21:32:00,26.3,19.8,30.37,SSW,198,7.0,7.0,76,0.00,CLR,,0.01,WeatherDisplay:10.37,2013-01-08 02:32:00,
2013-01-07 21:37:00,26.7,20.1,30.37,SSW,209,8.0,8.0,76,0.00,CLR,,0.01,WeatherDisplay:10.37,2013-01-08 02:37:00,
2013-01-07 21:42:00,26.9,20.3,30.36,SSW,199,9.2,9.2,76,0.00,CLR,,0.01,WeatherDisplay:10.37,2013-01-08 02:42:00,
2013-01-07 21:47:00,27.2,20.3,30.36,SSW,192,9.2,9.2,75,0.00,CLR,,0.01,WeatherDisplay:10.37,2013-01-08 02:47:00,
2013-01-07 21:52:00,27.3,20.4,30.36,South,190,9.2,9.2,75,0.00,CLR,,0.01,WeatherDisplay:10.37,2013-01-08 02:52:00,
2013-01-07 21:57:00,27.4,20.5,30.36,South,186,10.4,10.4,75,0.00,CLR,,0.01,WeatherDisplay:10.37,2013-01-08 02:57:00,
2013-01-07 22:02:00,27.4,20.5,30.36,SSW,196,10.4,10.4,75,0.00,CLR,,0.01,WeatherDisplay:10.37,2013-01-08 03:02:00,
2013-01-07 22:07:00,27.4,20.5,30.36,South,188,10.4,10.4,75,0.00,CLR,,0.01,WeatherDisplay:10.37,2013-01-08 03:07:00,
2013-01-07 22:12:00,27.5,20.6,30.35,South,186,10.4,10.4,75,0.00,CLR,,0.01,WeatherDisplay:10.37,2013-01-08 03:12:00,
2013-01-07 22:17:00,27.4,20.5,30.35,South,190,9.2,9.2,75,0.00,CLR,,0.01,WeatherDisplay:10.37,2013-01-08 03:17:00,
2013-01-07 22:22:00,27.2,20.3,30.35,South,190,10.4,10.4,75,0.00,CLR,,0.01,WeatherDisplay:10.37,2013-01-08 03:22:00,
2013-01-07 22:27:00,27.0,20.1,30.35,South,190,10.0,10.0,75,0.00,CLR,,0.01,WeatherDisplay:10.37,2013-01-08 03:27:00,
2013-01-07 22:32:00,27.0,20.1,30.35,South,184,9.2,9.2,75,0.00,CLR,,0.01,WeatherDisplay:10.37,2013-01-08 03:32:00,
2013-01-07 22:37:00,27.0,20.1,30.35,South,182,9.2,9.2,75,0.00,CLR,,0.01,WeatherDisplay:10.37,2013-01-08 03:37:00,
2013-01-07 22:42:00,26.9,20.0,30.34,South,190,10.4,10.4,75,0.00,CLR,,0.01,WeatherDisplay:10.37,2013-01-08 03:42:00,
2013-01-07 22:47:00,26.8,19.9,30.34,South,171,10.4,10.4,75,0.00,CLR,,0.01,WeatherDisplay:10.37,2013-01-08 03:47:00,
2013-01-07 22:52:00,26.6,19.7,30.34,SSW,196,10.0,10.0,75,0.00,CLR,,0.01,WeatherDisplay:10.37,2013-01-08 03:52:00,
2013-01-07 22:57:00,26.5,20.0,30.33,SSW,200,11.5,11.5,76,0.00,CLR,,0.01,WeatherDisplay:10.37,2013-01-08 03:57:00,
2013-01-07 23:02:00,26.5,20.0,30.33,South,187,9.2,9.2,76,0.00,CLR,,0.01,WeatherDisplay:10.37,2013-01-08 04:02:00,
2013-01-07 23:07:00,26.4,19.9,30.33,South,175,9.0,9.0,76,0.00,CLR,,0.01,WeatherDisplay:10.37,2013-01-08 04:07:00,
2013-01-07 23:12:00,26.3,19.8,30.33,SSW,192,8.1,8.1,76,0.00,CLR,,0.01,WeatherDisplay:10.37,2013-01-08 04:12:00,
2013-01-07 23:17:00,26.2,19.7,30.33,SSW,194,8.1,8.1,76,0.00,CLR,,0.01,WeatherDisplay:10.37,2013-01-08 04:17:00,
2013-01-07 23:22:00,26.2,20.0,30.33,SSW,192,6.0,6.0,77,0.00,CLR,,0.01,WeatherDisplay:10.37,2013-01-08 04:22:00,
2013-01-07 23:27:00,26.3,20.1,30.33,South,184,5.0,5.0,77,0.00,CLR,,0.01,WeatherDisplay:10.37,2013-01-08 04:27:00,
2013-01-07 23:32:00,26.1,19.6,30.33,SSE,163,4.0,4.0,76,0.00,CLR,,0.01,WeatherDisplay:10.37,2013-01-08 04:32:00,
2013-01-07 23:37:00,25.9,19.4,30.32,SSE,152,3.5,3.5,76,0.00,CLR,,0.01,WeatherDisplay:10.37,2013-01-08 04:37:00,
2013-01-07 23:42:00,25.8,19.6,30.32,South,178,5.0,5.0,77,0.00,CLR,,0.01,WeatherDisplay:10.37,2013-01-08 04:42:00,
2013-01-07 23:47:00,26.2,20.0,30.32,South,172,5.0,5.0,77,0.00,CLR,,0.01,WeatherDisplay:10.37,2013-01-08 04:47:00,
2013-01-07 23:52:00,26.2,20.0,30.32,SSE,167,7.0,7.0,77,0.00,CLR,,0.01,WeatherDisplay:10.37,2013-01-08 04:52:00,
2013-01-07 23:57:00,26.2,20.0,30.32,South,185,7.0,7.0,77,0.00,CLR,,0.01,WeatherDisplay:10.37,2013-01-08 04:57:00,